Year,Month,Day,Hour,Minute,Value (Times are PST for windgust in km/hr)
2010,06,12,00,00,4.80
2010,06,12,00,01,6.40
2010,06,12,00,02,6.40
2010,06,12,00,03,6.40
2010,06,12,00,04,4.80
2010,06,12,00,05,6.40
2010,06,12,00,06,4.80
2010,06,12,00,07,4.80
2010,06,12,00,08,4.80
2010,06,12,00,09,4.80
2010,06,12,00,10,6.40
2010,06,12,00,11,6.40
2010,06,12,00,12,4.80
2010,06,12,00,13,8.10
2010,06,12,00,18,4.80
2010,06,12,00,19,3.20
2010,06,12,00,20,6.40
2010,06,12,00,21,11.30
2010,06,12,00,22,9.60
2010,06,12,00,23,8.10
2010,06,12,00,24,9.60
2010,06,12,00,25,8.10
2010,06,12,00,26,8.10
2010,06,12,00,27,11.30
2010,06,12,00,28,8.10
2010,06,12,00,29,8.10
2010,06,12,00,30,6.40
2010,06,12,00,31,6.40
2010,06,12,00,32,6.40
2010,06,12,00,33,11.30
2010,06,12,00,34,8.10
2010,06,12,00,35,6.40
2010,06,12,00,36,6.40
2010,06,12,00,37,6.40
2010,06,12,00,38,6.40
2010,06,12,00,39,4.80
2010,06,12,00,40,6.40
2010,06,12,00,41,8.10
2010,06,12,00,42,4.80
2010,06,12,00,43,8.10
2010,06,12,00,44,6.40
2010,06,12,00,45,8.10
2010,06,12,00,46,6.40
2010,06,12,00,47,6.40
2010,06,12,00,48,6.40
2010,06,12,00,49,4.80
2010,06,12,00,50,3.20
2010,06,12,00,51,6.40
2010,06,12,00,52,8.10
2010,06,12,00,53,6.40
2010,06,12,00,54,3.20
2010,06,12,00,56,4.80
2010,06,12,00,57,4.80
2010,06,12,00,58,4.80
2010,06,12,00,59,4.80
2010,06,12,01,00,6.40
2010,06,12,01,01,4.80
2010,06,12,01,02,4.80
2010,06,12,01,03,6.40
2010,06,12,01,04,4.80
2010,06,12,01,05,6.40
2010,06,12,01,06,4.80
2010,06,12,01,07,3.20
2010,06,12,01,08,1.60
2010,06,12,01,09,4.80
2010,06,12,01,10,8.10
2010,06,12,01,11,8.10
2010,06,12,01,12,6.40
2010,06,12,01,13,9.60
2010,06,12,01,14,8.10
2010,06,12,01,15,8.10
2010,06,12,01,16,8.10
2010,06,12,01,17,8.10
2010,06,12,01,18,8.10
2010,06,12,01,19,16.10
2010,06,12,01,20,11.30
2010,06,12,01,21,8.10
2010,06,12,01,22,9.60
2010,06,12,01,23,8.10
2010,06,12,01,24,8.10
2010,06,12,01,25,8.10
2010,06,12,01,26,9.60
2010,06,12,01,27,9.60
2010,06,12,01,28,11.30
2010,06,12,01,29,8.10
2010,06,12,01,30,14.50
2010,06,12,01,31,9.60
2010,06,12,01,32,12.90
2010,06,12,01,33,11.30
2010,06,12,01,34,8.10
2010,06,12,01,35,9.60
2010,06,12,01,36,8.10
2010,06,12,01,37,9.60
2010,06,12,01,38,9.60
2010,06,12,01,39,11.30
2010,06,12,01,40,11.30
2010,06,12,01,41,9.60
2010,06,12,01,42,9.60
2010,06,12,01,43,9.60
2010,06,12,01,44,14.50
2010,06,12,01,45,8.10
2010,06,12,01,46,9.60
2010,06,12,01,47,9.60
2010,06,12,01,48,12.90
2010,06,12,01,49,9.60
2010,06,12,01,50,9.60
2010,06,12,01,51,8.10
2010,06,12,01,52,11.30
2010,06,12,01,53,8.10
2010,06,12,01,54,17.70
2010,06,12,01,55,14.50
2010,06,12,01,56,11.30
2010,06,12,01,57,16.10
2010,06,12,01,58,11.30
2010,06,12,01,59,8.10
2010,06,12,02,00,9.60
2010,06,12,02,01,16.10
2010,06,12,02,02,9.60
2010,06,12,02,03,11.30
2010,06,12,02,04,8.10
2010,06,12,02,05,6.40
2010,06,12,02,06,6.40
2010,06,12,02,07,4.80
2010,06,12,02,08,8.10
2010,06,12,02,09,6.40
2010,06,12,02,10,6.40
2010,06,12,02,11,4.80
2010,06,12,02,12,6.40
2010,06,12,02,13,6.40
2010,06,12,02,14,6.40
2010,06,12,02,15,4.80
2010,06,12,02,16,6.40
2010,06,12,02,17,9.60
2010,06,12,02,18,6.40
2010,06,12,02,19,4.80
2010,06,12,02,20,4.80
2010,06,12,02,21,1.60
2010,06,12,02,23,1.60
2010,06,12,02,25,1.60
2010,06,12,02,27,1.60
2010,06,12,02,43,1.60
2010,06,12,02,44,1.60
2010,06,12,03,56,1.60
2010,06,12,03,57,1.60
2010,06,12,04,21,1.60
2010,06,12,04,29,1.60
2010,06,12,04,31,1.60
2010,06,12,04,41,1.60
2010,06,12,04,42,1.60
2010,06,12,04,43,1.60
2010,06,12,04,44,1.60
2010,06,12,04,45,1.60
2010,06,12,04,48,1.60
2010,06,12,04,54,3.20
2010,06,12,04,55,3.20
2010,06,12,04,56,1.60
2010,06,12,04,57,3.20
2010,06,12,04,58,1.60
2010,06,12,04,59,3.20
2010,06,12,05,00,1.60
2010,06,12,08,05,1.60
2010,06,12,08,11,1.60
2010,06,12,08,12,3.20
2010,06,12,08,13,1.60
2010,06,12,08,19,1.60
2010,06,12,08,22,6.40
2010,06,12,08,23,6.40
2010,06,12,08,24,6.40
2010,06,12,08,25,3.20
2010,06,12,08,26,4.80
2010,06,12,08,27,4.80
2010,06,12,08,28,1.60
2010,06,12,08,29,3.20
2010,06,12,08,30,3.20
2010,06,12,08,31,4.80
2010,06,12,08,32,4.80
2010,06,12,08,33,1.60
2010,06,12,08,34,1.60
2010,06,12,08,37,4.80
2010,06,12,08,38,3.20
2010,06,12,08,39,6.40
2010,06,12,08,40,3.20
2010,06,12,08,46,1.60
2010,06,12,08,48,1.60
2010,06,12,08,50,4.80
2010,06,12,08,51,1.60
2010,06,12,08,53,4.80
2010,06,12,08,54,6.40
2010,06,12,08,55,3.20
2010,06,12,08,56,6.40
2010,06,12,08,57,6.40
2010,06,12,08,58,1.60
2010,06,12,09,01,3.20
2010,06,12,09,02,6.40
2010,06,12,09,03,6.40
2010,06,12,09,04,4.80
2010,06,12,09,05,6.40
2010,06,12,09,06,4.80
2010,06,12,09,07,4.80
2010,06,12,09,08,1.60
2010,06,12,09,09,4.80
2010,06,12,09,10,6.40
2010,06,12,09,11,9.60
2010,06,12,09,12,6.40
2010,06,12,09,13,8.10
2010,06,12,09,14,4.80
2010,06,12,09,15,4.80
2010,06,12,09,16,1.60
2010,06,12,09,17,6.40
2010,06,12,09,18,1.60
2010,06,12,09,19,1.60
2010,06,12,09,20,6.40
2010,06,12,09,21,8.10
2010,06,12,09,22,6.40
2010,06,12,09,23,8.10
2010,06,12,09,24,6.40
2010,06,12,09,25,6.40
2010,06,12,09,26,8.10
2010,06,12,09,27,4.80
2010,06,12,09,28,8.10
2010,06,12,09,29,8.10
2010,06,12,09,30,1.60
2010,06,12,09,31,6.40
2010,06,12,09,32,4.80
2010,06,12,09,33,8.10
2010,06,12,09,34,8.10
2010,06,12,09,35,8.10
2010,06,12,09,36,6.40
2010,06,12,09,37,6.40
2010,06,12,09,38,3.20
2010,06,12,09,39,1.60
2010,06,12,09,40,9.60
2010,06,12,09,41,6.40
2010,06,12,09,42,3.20
2010,06,12,09,43,6.40
2010,06,12,09,44,4.80
2010,06,12,09,45,6.40
2010,06,12,09,46,9.60
2010,06,12,09,47,6.40
2010,06,12,09,48,6.40
2010,06,12,09,49,6.40
2010,06,12,09,50,6.40
2010,06,12,09,51,9.60
2010,06,12,09,52,11.30
2010,06,12,09,53,8.10
2010,06,12,09,54,6.40
2010,06,12,09,55,4.80
2010,06,12,09,56,1.60
2010,06,12,09,57,9.60
2010,06,12,09,58,8.10
2010,06,12,09,59,6.40
2010,06,12,10,00,6.40
2010,06,12,10,01,6.40
2010,06,12,10,02,8.10
2010,06,12,10,03,8.10
2010,06,12,10,04,6.40
2010,06,12,10,05,8.10
2010,06,12,10,06,11.30
2010,06,12,10,07,4.80
2010,06,12,10,08,6.40
2010,06,12,10,09,6.40
2010,06,12,10,10,8.10
2010,06,12,10,11,6.40
2010,06,12,10,12,8.10
2010,06,12,10,13,4.80
2010,06,12,10,14,4.80
2010,06,12,10,15,1.60
2010,06,12,10,16,4.80
2010,06,12,10,17,9.60
2010,06,12,10,18,9.60
2010,06,12,10,19,8.10
2010,06,12,10,20,8.10
2010,06,12,10,21,1.60
2010,06,12,10,22,6.40
2010,06,12,10,23,6.40
2010,06,12,10,24,9.60
2010,06,12,10,25,3.20
2010,06,12,10,26,11.30
2010,06,12,10,27,8.10
2010,06,12,10,28,9.60
2010,06,12,10,29,4.80
2010,06,12,10,30,4.80
2010,06,12,10,31,3.20
2010,06,12,10,32,3.20
2010,06,12,10,33,1.60
2010,06,12,10,34,3.20
2010,06,12,10,35,1.60
2010,06,12,10,36,3.20
2010,06,12,10,37,6.40
2010,06,12,10,38,1.60
2010,06,12,10,39,1.60
2010,06,12,10,40,14.50
2010,06,12,10,41,8.10
2010,06,12,10,42,9.60
2010,06,12,10,43,12.90
2010,06,12,10,44,6.40
2010,06,12,10,45,6.40
2010,06,12,10,46,8.10
2010,06,12,10,47,8.10
2010,06,12,10,48,8.10
2010,06,12,10,49,11.30
2010,06,12,10,50,8.10
2010,06,12,10,51,9.60
2010,06,12,10,52,9.60
2010,06,12,10,53,9.60
2010,06,12,10,54,9.60
2010,06,12,10,55,8.10
2010,06,12,10,56,8.10
2010,06,12,10,57,9.60
2010,06,12,10,58,9.60
2010,06,12,10,59,4.80
2010,06,12,11,00,9.60
2010,06,12,11,01,9.60
2010,06,12,11,02,11.30
2010,06,12,11,03,8.10
2010,06,12,11,04,6.40
2010,06,12,11,05,6.40
2010,06,12,11,06,9.60
2010,06,12,11,07,8.10
2010,06,12,11,08,6.40
2010,06,12,11,09,6.40
2010,06,12,11,10,3.20
2010,06,12,11,11,11.30
2010,06,12,11,12,11.30
2010,06,12,11,13,8.10
2010,06,12,11,14,9.60
2010,06,12,11,15,9.60
2010,06,12,11,16,17.70
2010,06,12,11,17,16.10
2010,06,12,11,18,6.40
2010,06,12,11,19,11.30
2010,06,12,11,20,8.10
2010,06,12,11,21,6.40
2010,06,12,11,22,4.80
2010,06,12,11,23,6.40
2010,06,12,11,24,6.40
2010,06,12,11,25,3.20
2010,06,12,11,26,3.20
2010,06,12,11,27,9.60
2010,06,12,11,28,11.30
2010,06,12,11,29,8.10
2010,06,12,11,30,8.10
2010,06,12,11,31,4.80
2010,06,12,11,32,9.60
2010,06,12,11,33,9.60
2010,06,12,11,34,9.60
2010,06,12,11,35,3.20
2010,06,12,11,36,3.20
2010,06,12,11,37,3.20
2010,06,12,11,38,3.20
2010,06,12,11,39,14.50
2010,06,12,11,40,8.10
2010,06,12,11,41,14.50
2010,06,12,11,42,8.10
2010,06,12,11,43,9.60
2010,06,12,11,44,6.40
2010,06,12,11,45,8.10
2010,06,12,11,46,4.80
2010,06,12,11,47,6.40
2010,06,12,11,48,6.40
2010,06,12,11,49,6.40
2010,06,12,11,50,4.80
2010,06,12,11,51,4.80
2010,06,12,11,52,1.60
2010,06,12,11,53,4.80
2010,06,12,11,54,4.80
2010,06,12,11,55,3.20
2010,06,12,11,56,6.40
2010,06,12,11,57,4.80
2010,06,12,11,58,11.30
2010,06,12,11,59,9.60
2010,06,12,12,00,9.60
2010,06,12,12,01,8.10
2010,06,12,12,02,8.10
2010,06,12,12,03,6.40
2010,06,12,12,04,8.10
2010,06,12,12,05,8.10
2010,06,12,12,06,9.60
2010,06,12,12,07,9.60
2010,06,12,12,08,9.60
2010,06,12,12,09,14.50
2010,06,12,12,10,14.50
2010,06,12,12,11,11.30
2010,06,12,12,12,4.80
2010,06,12,12,13,11.30
2010,06,12,12,14,9.60
2010,06,12,12,15,4.80
2010,06,12,12,17,4.80
2010,06,12,12,18,8.10
2010,06,12,12,19,9.60
2010,06,12,12,20,4.80
2010,06,12,12,21,6.40
2010,06,12,12,22,8.10
2010,06,12,12,23,8.10
2010,06,12,12,24,16.10
2010,06,12,12,25,12.90
2010,06,12,12,26,9.60
2010,06,12,12,27,9.60
2010,06,12,12,28,3.20
2010,06,12,12,29,11.30
2010,06,12,12,30,20.90
2010,06,12,12,31,6.40
2010,06,12,12,32,8.10
2010,06,12,12,33,17.70
2010,06,12,12,34,19.30
2010,06,12,12,35,8.10
2010,06,12,12,36,11.30
2010,06,12,12,37,17.70
2010,06,12,12,38,20.90
2010,06,12,12,39,11.30
2010,06,12,12,40,14.50
2010,06,12,12,41,14.50
2010,06,12,12,42,17.70
2010,06,12,12,43,17.70
2010,06,12,12,44,17.70
2010,06,12,12,45,16.10
2010,06,12,12,46,16.10
2010,06,12,12,47,16.10
2010,06,12,12,48,9.60
2010,06,12,12,49,19.30
2010,06,12,12,50,19.30
2010,06,12,12,51,17.70
2010,06,12,12,52,9.60
2010,06,12,12,53,12.90
2010,06,12,12,54,14.50
2010,06,12,12,55,16.10
2010,06,12,12,56,11.30
2010,06,12,12,57,8.10
2010,06,12,12,58,20.90
2010,06,12,12,59,14.50
2010,06,12,13,00,9.60
2010,06,12,13,01,8.10
2010,06,12,13,02,9.60
2010,06,12,13,03,11.30
2010,06,12,13,04,19.30
2010,06,12,13,05,17.70
2010,06,12,13,06,17.70
2010,06,12,13,07,11.30
2010,06,12,13,08,9.60
2010,06,12,13,09,12.90
2010,06,12,13,10,8.10
2010,06,12,13,11,11.30
2010,06,12,13,12,11.30
2010,06,12,13,13,17.70
2010,06,12,13,14,14.50
2010,06,12,13,15,17.70
2010,06,12,13,16,16.10
2010,06,12,13,17,11.30
2010,06,12,13,18,8.10
2010,06,12,13,19,9.60
2010,06,12,13,20,8.10
2010,06,12,13,21,8.10
2010,06,12,13,22,11.30
2010,06,12,13,23,8.10
2010,06,12,13,24,8.10
2010,06,12,13,25,8.10
2010,06,12,13,26,6.40
2010,06,12,13,27,12.90
2010,06,12,13,28,17.70
2010,06,12,13,29,11.30
2010,06,12,13,30,11.30
2010,06,12,13,31,8.10
2010,06,12,13,32,16.10
2010,06,12,13,33,14.50
2010,06,12,13,34,8.10
2010,06,12,13,35,11.30
2010,06,12,13,36,4.80
2010,06,12,13,37,8.10
2010,06,12,13,38,11.30
2010,06,12,13,39,4.80
2010,06,12,13,40,1.60
2010,06,12,13,41,4.80
2010,06,12,13,42,4.80
2010,06,12,13,43,12.90
2010,06,12,13,44,14.50
2010,06,12,13,45,11.30
2010,06,12,13,46,11.30
2010,06,12,13,47,9.60
2010,06,12,13,48,9.60
2010,06,12,13,49,6.40
2010,06,12,13,50,4.80
2010,06,12,13,51,12.90
2010,06,12,13,52,19.30
2010,06,12,13,53,17.70
2010,06,12,13,54,17.70
2010,06,12,13,55,11.30
2010,06,12,13,56,11.30
2010,06,12,13,57,9.60
2010,06,12,13,58,3.20
2010,06,12,13,59,6.40
2010,06,12,14,00,4.80
2010,06,12,14,01,12.90
2010,06,12,14,02,4.80
2010,06,12,14,03,9.60
2010,06,12,14,04,6.40
2010,06,12,14,05,6.40
2010,06,12,14,06,9.60
2010,06,12,14,07,9.60
2010,06,12,14,08,8.10
2010,06,12,14,09,6.40
2010,06,12,14,10,3.20
2010,06,12,14,11,6.40
2010,06,12,14,12,4.80
2010,06,12,14,13,9.60
2010,06,12,14,14,8.10
2010,06,12,14,15,11.30
2010,06,12,14,16,19.30
2010,06,12,14,17,6.40
2010,06,12,14,18,17.70
2010,06,12,14,19,9.60
2010,06,12,14,20,4.80
2010,06,12,14,21,8.10
2010,06,12,14,22,14.50
2010,06,12,14,23,6.40
2010,06,12,14,24,9.60
2010,06,12,14,25,17.70
2010,06,12,14,26,9.60
2010,06,12,14,27,17.70
2010,06,12,14,28,19.30
2010,06,12,14,29,11.30
2010,06,12,14,30,22.50
2010,06,12,14,31,16.10
2010,06,12,14,32,8.10
2010,06,12,14,33,6.40
2010,06,12,14,34,17.70
2010,06,12,14,35,20.90
2010,06,12,14,36,17.70
2010,06,12,14,37,16.10
2010,06,12,14,38,14.50
2010,06,12,14,39,11.30
2010,06,12,14,40,8.10
2010,06,12,14,41,11.30
2010,06,12,14,42,16.10
2010,06,12,14,43,12.90
2010,06,12,14,44,6.40
2010,06,12,14,45,11.30
2010,06,12,14,46,14.50
2010,06,12,14,47,12.90
2010,06,12,14,48,4.80
2010,06,12,14,49,16.10
2010,06,12,14,50,17.70
2010,06,12,14,51,20.90
2010,06,12,14,52,14.50
2010,06,12,14,53,14.50
2010,06,12,14,54,11.30
2010,06,12,14,55,16.10
2010,06,12,14,56,6.40
2010,06,12,14,57,6.40
2010,06,12,14,58,3.20
2010,06,12,14,59,9.60
2010,06,12,15,00,11.30
2010,06,12,15,01,6.40
2010,06,12,15,02,14.50
2010,06,12,15,03,8.10
2010,06,12,15,04,9.60
2010,06,12,15,05,9.60
2010,06,12,15,06,17.70
2010,06,12,15,07,14.50
2010,06,12,15,08,9.60
2010,06,12,15,09,8.10
2010,06,12,15,10,20.90
2010,06,12,15,11,11.30
2010,06,12,15,12,6.40
2010,06,12,15,13,9.60
2010,06,12,15,14,11.30
2010,06,12,15,15,9.60
2010,06,12,15,16,6.40
2010,06,12,15,17,1.60
2010,06,12,15,18,3.20
2010,06,12,15,19,8.10
2010,06,12,15,20,6.40
2010,06,12,15,21,16.10
2010,06,12,15,22,11.30
2010,06,12,15,23,17.70
2010,06,12,15,24,17.70
2010,06,12,15,25,11.30
2010,06,12,15,26,4.80
2010,06,12,15,27,16.10
2010,06,12,15,28,19.30
2010,06,12,15,29,17.70
2010,06,12,15,30,16.10
2010,06,12,15,31,14.50
2010,06,12,15,32,14.50
2010,06,12,15,33,17.70
2010,06,12,15,34,16.10
2010,06,12,15,35,16.10
2010,06,12,15,36,11.30
2010,06,12,15,37,11.30
2010,06,12,15,38,17.70
2010,06,12,15,39,22.50
2010,06,12,15,40,11.30
2010,06,12,15,41,16.10
2010,06,12,15,42,9.60
2010,06,12,15,43,11.30
2010,06,12,15,44,17.70
2010,06,12,15,45,19.30
2010,06,12,15,46,9.60
2010,06,12,15,47,20.90
2010,06,12,15,48,19.30
2010,06,12,15,49,17.70
2010,06,12,15,50,14.50
2010,06,12,15,51,9.60
2010,06,12,15,52,11.30
2010,06,12,15,53,19.30
2010,06,12,15,54,16.10
2010,06,12,15,55,17.70
2010,06,12,15,56,17.70
2010,06,12,15,57,20.90
2010,06,12,15,58,8.10
2010,06,12,15,59,11.30
2010,06,12,16,00,11.30
2010,06,12,16,01,17.70
2010,06,12,16,02,14.50
2010,06,12,16,03,11.30
2010,06,12,16,04,14.50
2010,06,12,16,05,11.30
2010,06,12,16,06,16.10
2010,06,12,16,07,9.60
2010,06,12,16,08,17.70
2010,06,12,16,09,19.30
2010,06,12,16,10,11.30
2010,06,12,16,11,9.60
2010,06,12,16,12,9.60
2010,06,12,16,13,19.30
2010,06,12,16,14,19.30
2010,06,12,16,15,19.30
2010,06,12,16,16,17.70
2010,06,12,16,17,20.90
2010,06,12,16,18,14.50
2010,06,12,16,19,16.10
2010,06,12,16,20,16.10
2010,06,12,16,21,16.10
2010,06,12,16,22,12.90
2010,06,12,16,23,22.50
2010,06,12,16,24,17.70
2010,06,12,16,25,11.30
2010,06,12,16,26,9.60
2010,06,12,16,27,14.50
2010,06,12,16,28,20.90
2010,06,12,16,29,14.50
2010,06,12,16,30,22.50
2010,06,12,16,31,9.60
2010,06,12,16,32,14.50
2010,06,12,16,33,14.50
2010,06,12,16,34,14.50
2010,06,12,16,35,14.50
2010,06,12,16,36,22.50
2010,06,12,16,37,19.30
2010,06,12,16,38,9.60
2010,06,12,16,39,14.50
2010,06,12,16,40,17.70
2010,06,12,16,41,16.10
2010,06,12,16,42,17.70
2010,06,12,16,43,11.30
2010,06,12,16,44,9.60
2010,06,12,16,45,9.60
2010,06,12,16,46,9.60
2010,06,12,16,47,8.10
2010,06,12,16,48,6.40
2010,06,12,16,49,19.30
2010,06,12,16,50,17.70
2010,06,12,16,51,9.60
2010,06,12,16,52,14.50
2010,06,12,16,53,11.30
2010,06,12,16,54,17.70
2010,06,12,16,55,12.90
2010,06,12,16,56,16.10
2010,06,12,16,57,11.30
2010,06,12,16,58,16.10
2010,06,12,16,59,19.30
2010,06,12,17,00,11.30
2010,06,12,17,01,12.90
2010,06,12,17,02,9.60
2010,06,12,17,03,17.70
2010,06,12,17,04,11.30
2010,06,12,17,05,11.30
2010,06,12,17,06,16.10
2010,06,12,17,07,11.30
2010,06,12,17,08,9.60
2010,06,12,17,09,9.60
2010,06,12,17,10,14.50
2010,06,12,17,11,20.90
2010,06,12,17,12,20.90
2010,06,12,17,13,11.30
2010,06,12,17,14,16.10
2010,06,12,17,15,16.10
2010,06,12,17,16,11.30
2010,06,12,17,17,11.30
2010,06,12,17,18,16.10
2010,06,12,17,19,14.50
2010,06,12,17,20,12.90
2010,06,12,17,21,20.90
2010,06,12,17,22,22.50
2010,06,12,17,23,17.70
2010,06,12,17,24,19.30
2010,06,12,17,25,19.30
2010,06,12,17,26,16.10
2010,06,12,17,27,16.10
2010,06,12,17,28,20.90
2010,06,12,17,29,22.50
2010,06,12,17,30,14.50
2010,06,12,17,31,12.90
2010,06,12,17,32,20.90
2010,06,12,17,33,24.20
2010,06,12,17,34,14.50
2010,06,12,17,35,24.20
2010,06,12,17,36,16.10
2010,06,12,17,37,9.60
2010,06,12,17,38,19.30
2010,06,12,17,39,16.10
2010,06,12,17,40,9.60
2010,06,12,17,41,19.30
2010,06,12,17,42,20.90
2010,06,12,17,43,19.30
2010,06,12,17,44,20.90
2010,06,12,17,45,6.40
2010,06,12,17,46,9.60
2010,06,12,17,47,11.30
2010,06,12,17,48,16.10
2010,06,12,17,49,17.70
2010,06,12,17,50,14.50
2010,06,12,17,51,11.30
2010,06,12,17,52,17.70
2010,06,12,17,53,16.10
2010,06,12,17,54,19.30
2010,06,12,17,55,16.10
2010,06,12,17,56,9.60
2010,06,12,17,57,19.30
2010,06,12,17,58,19.30
2010,06,12,17,59,20.90
2010,06,12,18,00,19.30
2010,06,12,18,01,19.30
2010,06,12,18,02,25.70
2010,06,12,18,03,16.10
2010,06,12,18,04,24.20
2010,06,12,18,05,30.60
2010,06,12,18,06,20.90
2010,06,12,18,07,8.10
2010,06,12,18,08,25.70
2010,06,12,18,09,19.30
2010,06,12,18,10,17.70
2010,06,12,18,11,20.90
2010,06,12,18,12,14.50
2010,06,12,18,13,22.50
2010,06,12,18,14,17.70
2010,06,12,18,15,25.70
2010,06,12,18,16,11.30
2010,06,12,18,17,17.70
2010,06,12,18,18,22.50
2010,06,12,18,19,24.20
2010,06,12,18,20,24.20
2010,06,12,18,21,20.90
2010,06,12,18,22,24.20
2010,06,12,18,23,24.20
2010,06,12,18,24,22.50
2010,06,12,18,25,19.30
2010,06,12,18,26,19.30
2010,06,12,18,27,27.40
2010,06,12,18,28,20.90
2010,06,12,18,29,17.70
2010,06,12,18,30,19.30
2010,06,12,18,31,29.00
2010,06,12,18,32,24.20
2010,06,12,18,33,27.40
2010,06,12,18,34,33.80
2010,06,12,18,35,24.20
2010,06,12,18,36,16.10
2010,06,12,18,37,25.70
2010,06,12,18,38,17.70
2010,06,12,18,39,27.40
2010,06,12,18,40,27.40
2010,06,12,18,41,24.20
2010,06,12,18,42,29.00
2010,06,12,18,43,19.30
2010,06,12,18,44,30.60
2010,06,12,18,45,32.20
2010,06,12,18,46,29.00
2010,06,12,18,47,30.60
2010,06,12,18,48,25.70
2010,06,12,18,49,24.20
2010,06,12,18,50,17.70
2010,06,12,18,51,12.90
2010,06,12,18,52,11.30
2010,06,12,18,53,22.50
2010,06,12,18,54,17.70
2010,06,12,18,55,17.70
2010,06,12,18,56,22.50
2010,06,12,18,57,16.10
2010,06,12,18,58,17.70
2010,06,12,18,59,20.90
2010,06,12,19,00,20.90
2010,06,12,19,01,17.70
2010,06,12,19,02,20.90
2010,06,12,19,03,17.70
2010,06,12,19,04,16.10
2010,06,12,19,05,9.60
2010,06,12,19,06,14.50
2010,06,12,19,07,19.30
2010,06,12,19,08,20.90
2010,06,12,19,09,11.30
2010,06,12,19,10,14.50
2010,06,12,19,11,16.10
2010,06,12,19,12,19.30
2010,06,12,19,13,19.30
2010,06,12,19,14,17.70
2010,06,12,19,15,17.70
2010,06,12,19,16,19.30
2010,06,12,19,17,17.70
2010,06,12,19,18,16.10
2010,06,12,19,19,14.50
2010,06,12,19,20,22.50
2010,06,12,19,21,22.50
2010,06,12,19,22,19.30
2010,06,12,19,23,17.70
2010,06,12,19,24,22.50
2010,06,12,19,25,19.30
2010,06,12,19,26,12.90
2010,06,12,19,27,20.90
2010,06,12,19,28,17.70
2010,06,12,19,29,22.50
2010,06,12,19,30,17.70
2010,06,12,19,31,16.10
2010,06,12,19,32,17.70
2010,06,12,19,33,16.10
2010,06,12,19,34,19.30
2010,06,12,19,35,24.20
2010,06,12,19,36,19.30
2010,06,12,19,37,20.90
2010,06,12,19,38,12.90
2010,06,12,19,39,19.30
2010,06,12,19,40,19.30
2010,06,12,19,41,19.30
2010,06,12,19,42,11.30
2010,06,12,19,43,14.50
2010,06,12,19,44,20.90
2010,06,12,19,45,16.10
2010,06,12,19,46,12.90
2010,06,12,19,47,17.70
2010,06,12,19,48,14.50
2010,06,12,19,49,12.90
2010,06,12,19,50,20.90
2010,06,12,19,51,19.30
2010,06,12,19,52,22.50
2010,06,12,19,53,17.70
2010,06,12,19,54,20.90
2010,06,12,19,55,19.30
2010,06,12,19,56,14.50
2010,06,12,19,57,16.10
2010,06,12,19,58,12.90
2010,06,12,19,59,11.30
2010,06,12,20,00,25.70
2010,06,12,20,01,16.10
2010,06,12,20,02,19.30
2010,06,12,20,03,24.20
2010,06,12,20,04,22.50
2010,06,12,20,05,25.70
2010,06,12,20,06,17.70
2010,06,12,20,07,19.30
2010,06,12,20,08,20.90
2010,06,12,20,09,20.90
2010,06,12,20,10,14.50
2010,06,12,20,11,14.50
2010,06,12,20,12,17.70
2010,06,12,20,13,14.50
2010,06,12,20,14,14.50
2010,06,12,20,15,22.50
2010,06,12,20,16,22.50
2010,06,12,20,17,12.90
2010,06,12,20,18,11.30
2010,06,12,20,19,11.30
2010,06,12,20,20,24.20
2010,06,12,20,21,16.10
2010,06,12,20,22,14.50
2010,06,12,20,23,27.40
2010,06,12,20,24,24.20
2010,06,12,20,25,24.20
2010,06,12,20,26,17.70
2010,06,12,20,27,24.20
2010,06,12,20,28,22.50
2010,06,12,20,29,19.30
2010,06,12,20,30,16.10
2010,06,12,20,31,24.20
2010,06,12,20,32,20.90
2010,06,12,20,33,22.50
2010,06,12,20,34,27.40
2010,06,12,20,35,19.30
2010,06,12,20,36,17.70
2010,06,12,20,37,19.30
2010,06,12,20,38,17.70
2010,06,12,20,39,20.90
2010,06,12,20,40,22.50
2010,06,12,20,41,27.40
2010,06,12,20,42,22.50
2010,06,12,20,43,14.50
2010,06,12,20,44,17.70
2010,06,12,20,45,12.90
2010,06,12,20,46,16.10
2010,06,12,20,47,25.70
2010,06,12,20,48,20.90
2010,06,12,20,49,19.30
2010,06,12,20,50,11.30
2010,06,12,20,51,16.10
2010,06,12,20,52,16.10
2010,06,12,20,53,20.90
2010,06,12,20,54,16.10
2010,06,12,20,55,19.30
2010,06,12,20,56,17.70
2010,06,12,20,57,19.30
2010,06,12,20,58,17.70
2010,06,12,20,59,16.10
2010,06,12,21,00,19.30
2010,06,12,21,01,16.10
2010,06,12,21,02,11.30
2010,06,12,21,03,11.30
2010,06,12,21,04,11.30
2010,06,12,21,05,20.90
2010,06,12,21,06,16.10
2010,06,12,21,07,19.30
2010,06,12,21,08,20.90
2010,06,12,21,09,17.70
2010,06,12,21,10,22.50
2010,06,12,21,11,22.50
2010,06,12,21,12,11.30
2010,06,12,21,13,16.10
2010,06,12,21,14,17.70
2010,06,12,21,15,24.20
2010,06,12,21,16,22.50
2010,06,12,21,17,19.30
2010,06,12,21,18,16.10
2010,06,12,21,19,20.90
2010,06,12,21,20,19.30
2010,06,12,21,21,14.50
2010,06,12,21,22,19.30
2010,06,12,21,23,25.70
2010,06,12,21,24,24.20
2010,06,12,21,25,24.20
2010,06,12,21,26,19.30
2010,06,12,21,27,20.90
2010,06,12,21,28,17.70
2010,06,12,21,29,24.20
2010,06,12,21,30,17.70
2010,06,12,21,31,19.30
2010,06,12,21,32,19.30
2010,06,12,21,33,17.70
2010,06,12,21,34,19.30
2010,06,12,21,35,16.10
2010,06,12,21,36,19.30
2010,06,12,21,37,17.70
2010,06,12,21,38,22.50
2010,06,12,21,39,20.90
2010,06,12,21,40,17.70
2010,06,12,21,41,20.90
2010,06,12,21,42,22.50
2010,06,12,21,43,17.70
2010,06,12,21,44,29.00
2010,06,12,21,45,24.20
2010,06,12,21,46,24.20
2010,06,12,21,47,25.70
2010,06,12,21,48,17.70
2010,06,12,21,49,20.90
2010,06,12,21,50,22.50
2010,06,12,21,51,19.30
2010,06,12,21,52,20.90
2010,06,12,21,53,20.90
2010,06,12,21,54,17.70
2010,06,12,21,55,12.90
2010,06,12,21,56,16.10
2010,06,12,21,57,19.30
2010,06,12,21,58,17.70
2010,06,12,21,59,20.90
2010,06,12,22,00,20.90
2010,06,12,22,01,20.90
2010,06,12,22,02,17.70
2010,06,12,22,03,14.50
2010,06,12,22,04,17.70
2010,06,12,22,05,17.70
2010,06,12,22,06,19.30
2010,06,12,22,07,16.10
2010,06,12,22,08,20.90
2010,06,12,22,09,19.30
2010,06,12,22,10,20.90
2010,06,12,22,11,20.90
2010,06,12,22,12,11.30
2010,06,12,22,13,16.10
2010,06,12,22,14,16.10
2010,06,12,22,15,17.70
2010,06,12,22,16,17.70
2010,06,12,22,17,27.40
2010,06,12,22,18,14.50
2010,06,12,22,19,17.70
2010,06,12,22,20,14.50
2010,06,12,22,21,14.50
2010,06,12,22,22,16.10
2010,06,12,22,23,17.70
2010,06,12,22,24,19.30
2010,06,12,22,25,20.90
2010,06,12,22,26,17.70
2010,06,12,22,27,20.90
2010,06,12,22,28,11.30
2010,06,12,22,29,19.30
2010,06,12,22,30,16.10
2010,06,12,22,31,17.70
2010,06,12,22,32,22.50
2010,06,12,22,33,16.10
2010,06,12,22,34,16.10
2010,06,12,22,35,11.30
2010,06,12,22,36,8.10
2010,06,12,22,37,19.30
2010,06,12,22,38,19.30
2010,06,12,22,39,16.10
2010,06,12,22,40,11.30
2010,06,12,22,41,11.30
2010,06,12,22,42,4.80
2010,06,12,22,43,16.10
2010,06,12,22,44,19.30
2010,06,12,22,45,20.90
2010,06,12,22,46,14.50
2010,06,12,22,47,16.10
2010,06,12,22,48,29.00
2010,06,12,22,49,22.50
2010,06,12,22,50,19.30
2010,06,12,22,51,16.10
2010,06,12,22,52,17.70
2010,06,12,22,53,9.60
2010,06,12,22,54,20.90
2010,06,12,22,55,19.30
2010,06,12,22,56,14.50
2010,06,12,22,57,14.50
2010,06,12,22,58,20.90
2010,06,12,22,59,16.10
2010,06,12,23,00,19.30
2010,06,12,23,01,19.30
2010,06,12,23,02,17.70
2010,06,12,23,03,16.10
2010,06,12,23,04,19.30
2010,06,12,23,05,17.70
2010,06,12,23,06,16.10
2010,06,12,23,07,17.70
2010,06,12,23,08,25.70
2010,06,12,23,09,19.30
2010,06,12,23,10,17.70
2010,06,12,23,11,19.30
2010,06,12,23,12,17.70
2010,06,12,23,13,19.30
2010,06,12,23,14,19.30
2010,06,12,23,15,16.10
2010,06,12,23,16,19.30
2010,06,12,23,17,20.90
2010,06,12,23,18,16.10
2010,06,12,23,19,30.60
2010,06,12,23,20,20.90
2010,06,12,23,21,27.40
2010,06,12,23,22,27.40
2010,06,12,23,23,22.50
2010,06,12,23,24,29.00
2010,06,12,23,25,29.00
2010,06,12,23,26,22.50
2010,06,12,23,27,29.00
2010,06,12,23,28,27.40
2010,06,12,23,29,14.50